CW2708 Weather Reports


time (UTC)temp
F
wind
direction
speed
knots
gust
knots
rain 1hr
in
rain 24hr
in
rain mn
in
humidity
%
barometer
mb
20260906135003 69 99 0.0 2.6 0.00 0.00 0.00 97 1018.4
20260906133003 69 17 0.0 0.0 0.00 0.00 0.00 97 1018.4
20260906132004 67 21 0.0 0.0 0.00 0.00 0.00 97 1018.2
20260906130004 65 21 0.0 0.0 0.00 0.00 0.00 97 1018.1
20260906123003 64 21 0.0 0.0 0.00 0.00 0.00 97 1017.7
20260906122003 63 21 0.0 0.0 0.00 0.00 0.00 97 1017.7
20260906120004 63 21 0.0 0.0 0.00 0.00 0.00 96 1017.4
20260906115004 63 21 0.0 0.0 0.00 0.00 0.00 96 1017.4
20260906114003 63 21 0.0 0.0 0.00 0.00 0.00 96 1017.2
20260906113005 63 21 0.0 0.0 0.00 0.00 0.00 96 1017.0
20260906112003 63 21 0.0 0.0 0.00 0.00 0.00 96 1016.7
20260906111005 63 21 0.0 0.0 0.00 0.00 0.00 96 1016.7
20260906105003 63 21 0.0 0.0 0.00 0.00 0.00 96 1016.7
20260906104004 64 21 0.0 0.0 0.00 0.00 0.00 96 1016.8
20260906102003 64 21 0.0 0.0 0.00 0.00 0.00 97 1016.6
20260906101003 64 21 0.0 0.0 0.00 0.00 0.00 97 1016.6
20260906100005 64 21 0.0 0.0 0.00 0.00 0.00 97 1016.5
20260906095003 64 21 0.0 0.0 0.00 0.00 0.00 97 1016.5
20260906094004 64 21 0.0 0.0 0.00 0.00 0.00 97 1016.5
20260906093005 64 21 0.0 0.0 0.00 0.00 0.00 97 1016.4
20260906091003 64 21 0.0 0.0 0.00 0.00 0.00 97 1016.1
20260906090004 64 21 0.0 0.0 0.00 0.00 0.00 97 1016.2
20260906085003 63 21 0.0 0.0 0.00 0.00 0.00 97 1016.4
20260906084003 63 21 0.0 0.0 0.00 0.00 0.00 97 1016.3
20260906083003 63 21 0.0 0.0 0.00 0.00 0.00 96 1016.3
20260906082003 63 21 0.0 0.0 0.00 0.00 0.00 96 1016.4
20260906081003 62 21 0.0 0.0 0.00 0.00 0.00 96 1016.3
20260906080004 62 21 0.0 0.0 0.00 0.00 0.00 96 1016.0
20260906074005 63 21 0.0 0.0 0.00 0.00 0.00 96 1016.0
20260906073005 63 21 0.0 0.0 0.00 0.00 0.00 96 1015.8
20260906070004 63 21 0.0 0.0 0.00 0.00 0.00 96 1015.8
20260906065005 63 21 0.0 0.0 0.00 0.00 0.00 96 1015.9
20260906064005 63 21 0.0 0.0 0.00 0.00 0.00 96 1016.1
20260906063004 63 21 0.0 0.0 0.00 0.00 0.00 96 1015.9
20260906062003 63 21 0.0 0.0 0.00 0.00 0.00 96 1015.9
20260906061005 63 21 0.0 0.0 0.00 0.00 0.00 96 1015.8
20260906060004 64 21 0.0 0.0 0.00 0.00 0.00 96 1015.7
20260906055003 64 21 0.0 0.0 0.00 0.00 0.00 95 1015.7
20260906054003 64 21 0.0 0.0 0.00 0.00 0.00 96 1015.8
20260906053004 64 21 0.0 0.0 0.00 0.00 0.00 96 1015.8
20260906052003 64 21 0.0 0.0 0.00 0.00 0.00 95 1015.7
20260906050006 64 21 0.0 0.0 0.00 0.00 0.00 95 1015.6
20260906044004 64 21 0.0 0.0 0.00 0.00 0.00 95 1015.5
20260906043003 64 21 0.0 0.0 0.00 0.00 0.00 95 1015.5
20260906042004 64 21 0.0 0.0 0.00 0.00 0.00 95 1015.2
20260906041005 64 21 0.0 0.0 0.00 0.00 0.00 95 1015.1
20260906040004 65 21 0.0 0.0 0.00 0.00 0.00 95 1015.1
20260906035003 65 21 0.0 0.0 0.00 0.00 0.00 95 1015.3
20260906033003 65 21 0.0 0.0 0.00 0.00 0.00 95 1015.1
20260906030004 66 21 0.0 0.0 0.00 0.00 0.00 94 1015.4
20260906025003 66 21 0.0 0.0 0.00 0.00 0.00 94 1015.4
20260906024005 66 21 0.0 0.0 0.00 0.00 0.00 94 1015.4
20260906023004 66 21 0.0 0.0 0.00 0.00 0.00 94 1015.1
20260906022004 66 21 0.0 0.0 0.00 0.00 0.00 93 1015.1
20260906020004 67 33 0.0 1.7 0.00 0.00 0.00 93 1015.0
20260906014004 68 23 0.0 0.9 0.00 0.00 0.00 93 1014.9
20260906012003 68 23 0.0 0.0 0.00 0.00 0.00 92 1014.9
20260906011004 69 23 0.0 1.7 0.00 0.00 0.00 92 1014.8
20260906010004 69 22 0.0 2.6 0.00 0.00 0.00 91 1014.8
20260906004004 70 14 0.0 2.6 0.00 0.00 0.00 91 1014.7
20260906003004 71 14 0.0 5.2 0.00 0.00 0.00 91 1014.6
20260906002003 71 3 1.7 5.2 0.00 0.00 0.00 92 1014.8
20260906001004 71 304 0.9 3.5 0.00 0.00 0.00 92 1014.9
20260906000003 71 5 0.0 4.3 0.00 0.00 0.00 92 1014.8
20260905235004 72 354 0.0 3.5 0.00 0.00 0.00 92 1014.8
20260905234003 72 357 1.7 4.3 0.00 0.00 0.00 92 1014.9
20260905233003 72 28 0.9 4.3 0.00 0.00 0.00 92 1014.7
20260905232004 72 21 0.9 3.5 0.00 0.00 0.00 92 1014.6
20260905231003 72 15 0.0 3.5 0.00 0.00 0.00 92 1014.9
20260905230004 72 48 0.0 4.3 0.00 0.00 0.00 92 1014.9
20260905224004 72 330 1.7 8.7 0.00 0.00 0.00 92 1014.7
20260905223004 72 29 0.9 6.1 0.00 0.00 0.00 92 1014.5
20260905222003 72 350 2.6 7.0 0.00 0.00 0.00 93 1014.5
20260905221003 72 98 1.7 7.0 0.00 0.00 0.00 93 1014.4
20260905215004 73 354 1.7 7.8 0.00 0.00 0.00 92 1014.2
20260905214004 73 19 0.9 7.8 0.00 0.00 0.00 92 1014.1
20260905211003 73 98 3.5 7.0 0.00 0.00 0.00 92 1014.2
20260905210004 73 17 4.3 7.8 0.00 0.00 0.00 91 1014.3
20260905205003 73 356 2.6 8.7 0.00 0.00 0.00 91 1014.3
20260905204003 74 350 2.6 7.0 0.00 0.00 0.00 92 1014.1
20260905203003 74 50 0.9 7.8 0.00 0.00 0.00 91 1014.0
20260905202004 74 22 3.5 7.0 0.00 0.00 0.00 91 1014.1
20260905201003 74 56 2.6 7.0 0.00 0.00 0.00 91 1014.1
20260905200004 74 82 3.5 7.0 0.00 0.00 0.00 90 1014.1
20260905195004 75 26 2.6 5.2 0.00 0.00 0.00 90 1014.1
20260905194004 75 4 1.7 5.2 0.00 0.00 0.00 89 1014.2
20260905193004 76 3 3.5 7.8 0.00 0.00 0.00 89 1014.1
20260905192003 76 358 1.7 7.8 0.00 0.00 0.00 88 1014.0
20260905191004 77 97 1.7 7.0 0.00 0.00 0.00 87 1014.1
20260905190004 77 1 3.5 9.6 0.00 0.00 0.00 88 1014.0
20260905184005 77 36 1.7 7.0 0.00 0.00 0.00 88 1014.0
20260905182003 77 4 1.7 7.0 0.00 0.00 0.00 91 1014.0
20260905175004 77 234 0.9 6.1 0.00 0.00 0.00 91 1013.8
20260905174005 77 98 0.0 6.1 0.00 0.00 0.00 90 1013.8
20260905172004 77 121 0.9 6.1 0.00 0.00 0.00 90 1013.8
20260905170004 78 358 0.0 3.5 0.00 0.00 0.00 90 1013.8
20260905165004 78 242 0.0 7.0 0.00 0.00 0.00 89 1013.8
20260905164004 78 344 2.6 7.0 0.00 0.00 0.00 89 1013.8
20260905163003 78 40 0.9 4.3 0.00 0.00 0.00 88 1013.8
20260905162004 78 67 0.9 3.5 0.00 0.00 0.00 89 1013.8
20260905161004 78 277 1.7 6.1 0.00 0.00 0.00 90 1013.8
20260905160004 78 321 1.7 4.3 0.00 0.00 0.00 90 1013.8
20260905155003 77 284 0.9 7.0 0.00 0.00 0.00 91 1013.7
20260905154003 76 61 1.7 6.1 0.00 0.00 0.00 92 1013.6
20260905153004 76 304 0.9 5.2 0.00 0.00 0.00 92 1013.6
20260905150004 74 47 2.6 3.5 0.00 0.00 0.00 95 1013.5
20260905145004 74 347 0.0 7.0 0.00 0.00 0.00 95 1013.3
20260905144003 74 8 2.6 6.1 0.00 0.00 0.00 96 1013.3
20260905143004 73 359 0.9 3.5 0.00 0.00 0.00 96 1013.1
20260905142005 73 19 3.5 4.3 0.00 0.00 0.00 96 1013.1
20260905141003 72 15 2.6 7.0 0.00 0.00 0.00 97 1013.1